QPF
0.23 0.30 0.41 0.57 0.67 0.72 0.85 0.90 0.87 0.77 0.54 0.39 0.36 0.30 0.21 0.18 0.13 0.08 0.05 0.03 0.02 0.01 0.01 0.01 0.01 0.01 0.01 0.01 0.02 0.01 0.01 0.02 0.04 0.04 0.03 0.03 0.03 0.02 0.02 0.03 0.03 0.04 0.04
0.24 0.32 0.41 0.59 0.64 0.60 0.79 0.97 0.81 0.61 0.47 0.37 0.32 0.28 0.19 0.12 0.06 0.04 0.04 0.03 0.01 0.00 0.00 0.00 0.00 0.00 0.00 0.00 0.01 0.01 0.01 0.01 0.03 0.03 0.03 0.02 0.01 0.01 0.01 0.02 0.02 0.03 0.04
0.26 0.30 0.29 0.28 0.33 0.45 0.66 0.71 0.52 0.42 0.34 0.27 0.20 0.13 0.10 0.09 0.07 0.05 0.02 0.01 0.01 0.00 0.00 0.00 0.00 0.00 0.00 0.00 0.00 0.00 0.00 0.01 0.02 0.03 0.03 0.02 0.01 0.01 0.01 0.02 0.02 0.04 0.04
0.23 0.21 0.21 0.26 0.28 0.22 0.23 0.26 0.25 0.20 0.17 0.14 0.12 0.10 0.09 0.08 0.07 0.05 0.03 0.03 0.02 0.03 0.02 0.01 0.00 0.00 0.00 0.00 0.00 0.00 0.00 0.00 0.01 0.01 0.02 0.03 0.02 0.02 0.01 0.01 0.01 0.02 0.04
0.13 0.11 0.16 0.19 0.15 0.11 0.15 0.16 0.17 0.18 0.16 0.14 0.14 0.13 0.10 0.08 0.07 0.06 0.06 0.08 0.10 0.09 0.04 0.02 0.01 0.01 0.01 0.00 0.00 0.00 0.00 0.00 0.00 0.00 0.01 0.02 0.03 0.03 0.03 0.01 0.01 0.02 0.02
0.09 0.08 0.07 0.07 0.09 0.10 0.16 0.18 0.17 0.15 0.15 0.13 0.12 0.11 0.08 0.07 0.07 0.07 0.07 0.07 0.07 0.06 0.05 0.03 0.02 0.02 0.02 0.01 0.00 0.00 0.00 0.00 0.00 0.00 0.01 0.01 0.02 0.02 0.02 0.02 0.02 0.02 0.02
0.07 0.06 0.05 0.06 0.08 0.10 0.11 0.14 0.17 0.16 0.14 0.13 0.11 0.09 0.08 0.08 0.08 0.07 0.07 0.07 0.07 0.06 0.06 0.07 0.06 0.06 0.05 0.03 0.02 0.01 0.01 0.00 0.00 0.00 0.00 0.01 0.01 0.02 0.02 0.02 0.02 0.02 0.02
0.04 0.04 0.04 0.05 0.05 0.06 0.08 0.09 0.12 0.12 0.11 0.11 0.11 0.09 0.09 0.08 0.08 0.07 0.07 0.08 0.07 0.07 0.08 0.10 0.11 0.12 0.11 0.08 0.05 0.02 0.01 0.01 0.01 0.00 0.00 0.00 0.01 0.01 0.01 0.02 0.03 0.03 0.03
0.04 0.02 0.02 0.02 0.02 0.02 0.02 0.03 0.04 0.05 0.06 0.07 0.07 0.05 0.04 0.04 0.04 0.04 0.04 0.04 0.04 0.05 0.06 0.09 0.11 0.15 0.16 0.13 0.09 0.06 0.03 0.02 0.02 0.02 0.01 0.00 0.00 0.01 0.01 0.02 0.03 0.04 0.04
0.02 0.01 0.01 0.00 0.00 0.01 0.00 0.01 0.01 0.01 0.01 0.02 0.02 0.02 0.02 0.02 0.02 0.02 0.01 0.02 0.02 0.02 0.03 0.05 0.05 0.06 0.08 0.09 0.10 0.10 0.07 0.05 0.03 0.02 0.02 0.01 0.01 0.01 0.01 0.02 0.03 0.05 0.05
0.01 0.01 0.01 0.00 0.00 0.00 0.00 0.00 0.00 0.00 0.00 0.00 0.00 0.01 0.01 0.01 0.01 0.01 0.01 0.01 0.01 0.01 0.02 0.02 0.03 0.03 0.05 0.05 0.06 0.07 0.08 0.06 0.03 0.03 0.03 0.02 0.01 0.01 0.01 0.01 0.02 0.04 0.05
0.01 0.00 0.00 0.00 0.00 0.00 0.00 0.00 0.00 0.00 0.00 0.00 0.00 0.00 0.00 0.00 0.00 0.00 0.01 0.01 0.01 0.01 0.01 0.01 0.01 0.02 0.02 0.03 0.03 0.04 0.05 0.06 0.05 0.04 0.03 0.02 0.01 0.01 0.01 0.01 0.02 0.04 0.05
0.00 0.00 0.00 0.00 0.00 0.00 0.00 0.00 0.00 0.00 0.00 0.00 0.00 0.00 0.00 0.00 0.00 0.00 0.00 0.00 0.00 0.00 0.01 0.01 0.01 0.02 0.02 0.02 0.02 0.02 0.03 0.04 0.04 0.04 0.03 0.02 0.02 0.01 0.01 0.01 0.02 0.03 0.05
0.00 0.00 0.00 0.00 0.00 0.00 0.00 0.00 0.00 0.00 0.00 0.00 0.00 0.00 0.00 0.00 0.00 0.00 0.00 0.00 0.00 0.00 0.00 0.00 0.01 0.01 0.02 0.03 0.02 0.02 0.03 0.03 0.04 0.04 0.03 0.03 0.02 0.02 0.02 0.02 0.02 0.04 0.05
0.00 0.00 0.00 0.00 0.00 0.00 0.00 0.00 0.00 0.00 0.00 0.00 0.00 0.00 0.00 0.00 0.00 0.00 0.00 0.00 0.00 0.00 0.00 0.00 0.00 0.00 0.01 0.01 0.02 0.03 0.03 0.03 0.04 0.04 0.03 0.03 0.02 0.02 0.02 0.02 0.02 0.03 0.03
0.00 0.00 0.00 0.00 0.00 0.00 0.00 0.00 0.00 0.00 0.00 0.00 0.00 0.00 0.00 0.00 0.00 0.00 0.00 0.00 0.00 0.00 0.00 0.00 0.00 0.00 0.00 0.01 0.02 0.02 0.03 0.04 0.04 0.04 0.03 0.03 0.02 0.02 0.02 0.02 0.02 0.02 0.03
0.00 0.00 0.00 0.00 0.00 0.00 0.00 0.00 0.00 0.00 0.00 0.00 0.00 0.00 0.00 0.00 0.00 0.00 0.00 0.01 0.01 0.01 0.00 0.00 0.00 0.00 0.00 0.01 0.01 0.02 0.03 0.03 0.04 0.05 0.04 0.03 0.02 0.02 0.02 0.01 0.01 0.01 0.02
0.00 0.00 0.00 0.00 0.00 0.00 0.00 0.00 0.00 0.00 0.00 0.00 0.00 0.00 0.00 0.01 0.01 0.01 0.01 0.01 0.01 0.01 0.00 0.00 0.00 0.00 0.01 0.01 0.01 0.02 0.02 0.03 0.05 0.05 0.05 0.03 0.03 0.02 0.02 0.01 0.01 0.01 0.01
0.00 0.00 0.00 0.00 0.00 0.00 0.00 0.00 0.00 0.00 0.00 0.01 0.01 0.00 0.00 0.01 0.01 0.01 0.00 0.00 0.01 0.01 0.00 0.00 0.00 0.00 0.01 0.02 0.02 0.03 0.04 0.05 0.06 0.06 0.06 0.04 0.03 0.03 0.02 0.02 0.02 0.01 0.02
0.00 0.00 0.00 0.00 0.00 0.00 0.00 0.00 0.00 0.01 0.01 0.01 0.01 0.01 0.01 0.01 0.01 0.01 0.00 0.00 0.01 0.01 0.00 0.00 0.00 0.01 0.01 0.01 0.02 0.03 0.04 0.06 0.08 0.09 0.08 0.06 0.04 0.03 0.02 0.02 0.03 0.02 0.02
0.00 0.00 0.00 0.00 0.00 0.00 0.00 0.01 0.01 0.01 0.01 0.01 0.01 0.01 0.01 0.01 0.01 0.00 0.01 0.01 0.01 0.01 0.01 0.00 0.00 0.01 0.01 0.01 0.02 0.04 0.06 0.09 0.11 0.13 0.12 0.08 0.06 0.05 0.04 0.03 0.03 0.04 0.04
0.00 0.00 0.00 0.00 0.00 0.00 0.01 0.02 0.02 0.01 0.01 0.01 0.02 0.01 0.01 0.01 0.01 0.01 0.01 0.01 0.01 0.01 0.01 0.01 0.01 0.02 0.01 0.01 0.02 0.04 0.07 0.12 0.15 0.17 0.16 0.12 0.09 0.07 0.05 0.04 0.04 0.05 0.05
0.00 0.00 0.00 0.00 0.00 0.01 0.01 0.03 0.02 0.02 0.02 0.02 0.02 0.02 0.01 0.01 0.01 0.01 0.01 0.01 0.01 0.01 0.01 0.01 0.02 0.03 0.03 0.03 0.05 0.07 0.08 0.14 0.19 0.22 0.24 0.18 0.14 0.11 0.07 0.05 0.04 0.04 0.04
0.00 0.00 0.00 0.01 0.01 0.01 0.02 0.02 0.03 0.03 0.04 0.03 0.03 0.02 0.02 0.01 0.01 0.01 0.01 0.01 0.01 0.02 0.01 0.02 0.02 0.02 0.03 0.04 0.06 0.09 0.11 0.17 0.23 0.26 0.29 0.25 0.18 0.14 0.09 0.06 0.04 0.04 0.05
0.00 0.01 0.01 0.02 0.02 0.02 0.02 0.02 0.03 0.03 0.04 0.04 0.04 0.03 0.03 0.02 0.02 0.01 0.01 0.01 0.01 0.01 0.01 0.01 0.01 0.02 0.02 0.04 0.06 0.10 0.17 0.23 0.29 0.31 0.32 0.32 0.23 0.17 0.11 0.06 0.04 0.04 0.05
0.01 0.01 0.02 0.02 0.02 0.03 0.03 0.02 0.02 0.04 0.05 0.05 0.04 0.03 0.02 0.02 0.02 0.01 0.01 0.01 0.01 0.00 0.00 0.00 0.01 0.01 0.02 0.03 0.06 0.10 0.18 0.26 0.33 0.35 0.33 0.30 0.24 0.17 0.12 0.06 0.05 0.04 0.03
MSLP
1010.15 1010.55 1010.91 1011.16 1011.26 1011.21 1011.01 1010.69 1010.30 1009.91 1009.56 1009.28 1009.09 1008.99 1008.96 1009.00 1009.06 1009.16 1009.27 1009.41 1009.58 1009.78 1010.03 1010.30 1010.58 1010.84 1011.08 1011.27 1011.41 1011.50 1011.54 1011.57 1011.57 1011.56 1011.54 1011.48 1011.38 1011.21 1010.99 1010.72 1010.43 1010.16 1009.96
1010.86 1011.18 1011.44 1011.59 1011.60 1011.46 1011.19 1010.85 1010.47 1010.13 1009.87 1009.69 1009.60 1009.58 1009.60 1009.63 1009.65 1009.66 1009.67 1009.69 1009.75 1009.86 1010.03 1010.25 1010.50 1010.75 1010.97 1011.14 1011.25 1011.32 1011.35 1011.37 1011.39 1011.41 1011.43 1011.43 1011.38 1011.27 1011.08 1010.81 1010.51 1010.19 1009.91
1011.26 1011.49 1011.67 1011.75 1011.70 1011.53 1011.25 1010.93 1010.61 1010.37 1010.21 1010.16 1010.19 1010.26 1010.34 1010.39 1010.38 1010.32 1010.23 1010.14 1010.07 1010.07 1010.14 1010.27 1010.45 1010.63 1010.79 1010.91 1010.99 1011.02 1011.03 1011.04 1011.08 1011.14 1011.22 1011.29 1011.32 1011.29 1011.15 1010.93 1010.62 1010.28 1009.94
1011.42 1011.57 1011.70 1011.75 1011.69 1011.52 1011.27 1011.01 1010.77 1010.63 1010.59 1010.65 1010.79 1010.95 1011.08 1011.15 1011.13 1011.01 1010.84 1010.65 1010.47 1010.35 1010.31 1010.34 1010.41 1010.50 1010.58 1010.63 1010.64 1010.62 1010.60 1010.60 1010.65 1010.75 1010.89 1011.04 1011.16 1011.21 1011.15 1010.98 1010.70 1010.35 1009.98
1011.42 1011.53 1011.64 1011.70 1011.66 1011.53 1011.34 1011.14 1010.99 1010.93 1010.98 1011.13 1011.34 1011.57 1011.74 1011.82 1011.79 1011.64 1011.41 1011.14 1010.87 1010.66 1010.51 1010.42 1010.39 1010.38 1010.37 1010.33 1010.27 1010.19 1010.12 1010.11 1010.16 1010.28 1010.46 1010.67 1010.86 1010.99 1011.01 1010.91 1010.68 1010.35 1009.97
1011.38 1011.48 1011.60 1011.69 1011.71 1011.64 1011.51 1011.37 1011.28 1011.27 1011.37 1011.56 1011.81 1012.05 1012.24 1012.33 1012.29 1012.12 1011.86 1011.54 1011.22 1010.93 1010.70 1010.52 1010.40 1010.30 1010.19 1010.06 1009.92 1009.78 1009.66 1009.61 1009.64 1009.76 1009.95 1010.20 1010.44 1010.63 1010.72 1010.68 1010.50 1010.22 1009.87
1011.37 1011.48 1011.64 1011.79 1011.86 1011.84 1011.77 1011.67 1011.61 1011.61 1011.72 1011.90 1012.14 1012.37 1012.55 1012.63 1012.59 1012.41 1012.14 1011.81 1011.47 1011.14 1010.86 1010.63 1010.43 1010.25 1010.07 1009.87 1009.65 1009.44 1009.27 1009.16 1009.15 1009.23 1009.41 1009.65 1009.90 1010.12 1010.25 1010.27 1010.16 1009.95 1009.66
1011.42 1011.57 1011.77 1011.96 1012.08 1012.11 1012.07 1011.99 1011.92 1011.91 1011.98 1012.12 1012.31 1012.51 1012.66 1012.72 1012.68 1012.51 1012.26 1011.94 1011.61 1011.28 1010.98 1010.72 1010.49 1010.26 1010.02 1009.75 1009.48 1009.20 1008.97 1008.79 1008.71 1008.74 1008.86 1009.06 1009.29 1009.50 1009.65 1009.71 1009.67 1009.54 1009.33
1011.54 1011.72 1011.95 1012.17 1012.32 1012.36 1012.33 1012.24 1012.15 1012.10 1012.11 1012.20 1012.33 1012.47 1012.58 1012.63 1012.58 1012.44 1012.21 1011.93 1011.63 1011.33 1011.05 1010.79 1010.54 1010.28 1010.01 1009.70 1009.38 1009.05 1008.75 1008.51 1008.35 1008.29 1008.34 1008.46 1008.62 1008.80 1008.95 1009.03 1009.05 1009.00 1008.90
1011.70 1011.88 1012.12 1012.33 1012.47 1012.51 1012.45 1012.34 1012.22 1012.12 1012.08 1012.10 1012.17 1012.27 1012.34 1012.37 1012.33 1012.21 1012.03 1011.80 1011.54 1011.29 1011.04 1010.80 1010.55 1010.29 1010.00 1009.67 1009.31 1008.94 1008.58 1008.27 1008.03 1007.89 1007.83 1007.86 1007.94 1008.06 1008.18 1008.28 1008.34 1008.37 1008.39
1011.85 1012.01 1012.20 1012.37 1012.46 1012.45 1012.36 1012.22 1012.06 1011.93 1011.85 1011.83 1011.86 1011.91 1011.95 1011.97 1011.94 1011.85 1011.70 1011.52 1011.33 1011.12 1010.91 1010.70 1010.47 1010.22 1009.92 1009.58 1009.20 1008.80 1008.40 1008.03 1007.72 1007.49 1007.34 1007.27 1007.26 1007.31 1007.38 1007.47 1007.57 1007.67 1007.79
1011.96 1012.05 1012.15 1012.23 1012.23 1012.16 1012.03 1011.85 1011.68 1011.53 1011.42 1011.38 1011.38 1011.40 1011.43 1011.44 1011.41 1011.35 1011.24 1011.11 1010.96 1010.80 1010.63 1010.45 1010.25 1010.01 1009.72 1009.38 1008.99 1008.57 1008.15 1007.74 1007.37 1007.07 1006.83 1006.67 1006.59 1006.56 1006.58 1006.65 1006.77 1006.92 1007.12
1012.00 1011.97 1011.94 1011.89 1011.79 1011.64 1011.45 1011.25 1011.06 1010.91 1010.81 1010.76 1010.74 1010.76 1010.77 1010.77 1010.75 1010.70 1010.62 1010.52 1010.42 1010.30 1010.17 1010.02 1009.84 1009.62 1009.34 1009.01 1008.63 1008.21 1007.77 1007.35 1006.95 1006.60 1006.30 1006.08 1005.92 1005.83 1005.81 1005.85 1005.95 1006.13 1006.39
1011.94 1011.76 1011.57 1011.37 1011.15 1010.91 1010.67 1010.45 1010.26 1010.12 1010.03 1009.98 1009.97 1009.97 1009.97 1009.96 1009.93 1009.89 1009.83 1009.76 1009.69 1009.60 1009.51 1009.39 1009.24 1009.04 1008.78 1008.47 1008.10 1007.69 1007.26 1006.84 1006.43 1006.06 1005.74 1005.48 1005.27 1005.13 1005.06 1005.07 1005.15 1005.33 1005.61
1011.75 1011.40 1011.05 1010.70 1010.35 1010.03 1009.75 1009.51 1009.33 1009.20 1009.12 1009.08 1009.06 1009.05 1009.04 1009.01 1008.97 1008.92 1008.87 1008.82 1008.78 1008.73 1008.68 1008.59 1008.47 1008.30 1008.06 1007.77 1007.42 1007.03 1006.63 1006.22 1005.83 1005.47 1005.15 1004.87 1004.65 1004.48 1004.37 1004.34 1004.40 1004.55 1004.82
1011.43 1010.92 1010.41 1009.93 1009.48 1009.08 1008.76 1008.51 1008.33 1008.22 1008.15 1008.10 1008.07 1008.03 1007.99 1007.94 1007.88 1007.82 1007.78 1007.76 1007.74 1007.74 1007.72 1007.67 1007.58 1007.44 1007.23 1006.96 1006.64 1006.28 1005.91 1005.53 1005.17 1004.84 1004.54 1004.28 1004.06 1003.88 1003.76 1003.70 1003.72 1003.85 1004.09
1010.97 1010.33 1009.70 1009.11 1008.58 1008.13 1007.78 1007.52 1007.35 1007.23 1007.16 1007.10 1007.04 1006.97 1006.89 1006.80 1006.72 1006.66 1006.63 1006.62 1006.65 1006.68 1006.71 1006.71 1006.66 1006.54 1006.36 1006.11 1005.82 1005.49 1005.14 1004.81 1004.49 1004.20 1003.94 1003.71 1003.52 1003.36 1003.24 1003.17 1003.17 1003.27 1003.48
1010.41 1009.67 1008.96 1008.30 1007.72 1007.25 1006.88 1006.62 1006.44 1006.32 1006.22 1006.13 1006.03 1005.92 1005.80 1005.68 1005.58 1005.51 1005.49 1005.51 1005.58 1005.66 1005.73 1005.77 1005.76 1005.67 1005.51 1005.29 1005.01 1004.70 1004.39 1004.08 1003.81 1003.56 1003.36 1003.18 1003.04 1002.92 1002.82 1002.77 1002.78 1002.86 1003.05
1009.77 1009.00 1008.25 1007.56 1006.97 1006.49 1006.12 1005.85 1005.66 1005.51 1005.39 1005.26 1005.12 1004.96 1004.80 1004.65 1004.53 1004.47 1004.46 1004.52 1004.62 1004.74 1004.85 1004.93 1004.94 1004.88 1004.74 1004.52 1004.26 1003.96 1003.66 1003.39 1003.15 1002.96 1002.81 1002.69 1002.61 1002.55 1002.51 1002.51 1002.55 1002.65 1002.84
1009.14 1008.36 1007.62 1006.94 1006.36 1005.88 1005.51 1005.23 1005.02 1004.85 1004.69 1004.52 1004.33 1004.13 1003.94 1003.77 1003.64 1003.58 1003.60 1003.68 1003.81 1003.96 1004.11 1004.21 1004.24 1004.19 1004.05 1003.83 1003.56 1003.27 1002.99 1002.73 1002.53 1002.38 1002.28 1002.24 1002.23 1002.25 1002.29 1002.36 1002.46 1002.62 1002.85
1008.57 1007.83 1007.11 1006.46 1005.89 1005.42 1005.05 1004.76 1004.52 1004.32 1004.12 1003.91 1003.69 1003.46 1003.24 1003.06 1002.94 1002.89 1002.92 1003.02 1003.17 1003.33 1003.49 1003.60 1003.63 1003.57 1003.42 1003.20 1002.93 1002.64 1002.35 1002.11 1001.93 1001.83 1001.79 1001.81 1001.88 1001.98 1002.12 1002.29 1002.49 1002.73 1003.03
1008.12 1007.42 1006.74 1006.12 1005.57 1005.11 1004.72 1004.40 1004.14 1003.89 1003.65 1003.41 1003.16 1002.92 1002.69 1002.51 1002.40 1002.36 1002.39 1002.50 1002.65 1002.81 1002.96 1003.06 1003.07 1003.00 1002.84 1002.61 1002.33 1002.04 1001.76 1001.54 1001.39 1001.31 1001.32 1001.41 1001.55 1001.75 1001.99 1002.27 1002.58 1002.93 1003.33
1007.80 1007.14 1006.50 1005.89 1005.35 1004.87 1004.46 1004.10 1003.79 1003.50 1003.23 1002.96 1002.70 1002.45 1002.23 1002.06 1001.96 1001.92 1001.96 1002.06 1002.20 1002.34 1002.47 1002.53 1002.53 1002.44 1002.27 1002.03 1001.76 1001.48 1001.22 1001.02 1000.89 1000.86 1000.91 1001.05 1001.27 1001.55 1001.88 1002.27 1002.69 1003.16 1003.66
1007.60 1006.97 1006.34 1005.73 1005.17 1004.65 1004.19 1003.78 1003.41 1003.07 1002.76 1002.47 1002.21 1001.97 1001.77 1001.63 1001.54 1001.52 1001.56 1001.64 1001.75 1001.86 1001.95 1001.99 1001.96 1001.86 1001.69 1001.47 1001.21 1000.96 1000.74 1000.58 1000.49 1000.49 1000.59 1000.77 1001.05 1001.39 1001.80 1002.28 1002.80 1003.37 1003.98
1007.47 1006.84 1006.20 1005.56 1004.94 1004.36 1003.83 1003.34 1002.91 1002.52 1002.18 1001.88 1001.62 1001.41 1001.24 1001.13 1001.07 1001.06 1001.10 1001.17 1001.25 1001.33 1001.39 1001.40 1001.36 1001.26 1001.11 1000.93 1000.73 1000.53 1000.37 1000.26 1000.22 1000.27 1000.40 1000.62 1000.92 1001.31 1001.78 1002.31 1002.90 1003.55 1004.23
1007.33 1006.68 1005.99 1005.29 1004.60 1003.93 1003.30 1002.73 1002.23 1001.79 1001.42 1001.12 1000.88 1000.70 1000.58 1000.51 1000.49 1000.51 1000.56 1000.62 1000.69 1000.75 1000.79 1000.79 1000.75 1000.68 1000.58 1000.46 1000.33 1000.22 1000.13 1000.10 1000.12 1000.21 1000.37 1000.62 1000.94 1001.34 1001.82 1002.38 1003.00 1003.68 1004.41
Thickness
5784 5785 5783 5783 5780 5773 5765 5762 5758 5756 5755 5750 5748 5747 5746 5747 5747 5748 5749 5747 5744 5742 5739 5737 5735 5734 5731 5731 5731 5730 5729 5728 5729 5727 5726 5729 5732 5733 5733 5732 5731 5730 5730
5772 5773 5771 5769 5766 5761 5756 5753 5749 5749 5747 5744 5742 5741 5738 5739 5739 5741 5741 5740 5739 5737 5735 5732 5730 5729 5727 5726 5726 5726 5723 5723 5725 5721 5717 5716 5719 5726 5731 5729 5727 5726 5726
5760 5760 5759 5757 5755 5751 5748 5746 5741 5740 5740 5738 5736 5735 5733 5732 5729 5729 5732 5734 5733 5732 5731 5728 5726 5725 5724 5722 5722 5722 5719 5716 5718 5719 5714 5709 5707 5712 5719 5723 5723 5722 5721
5748 5749 5749 5748 5744 5741 5739 5735 5732 5730 5729 5730 5728 5727 5723 5720 5719 5722 5723 5725 5725 5725 5724 5724 5722 5720 5720 5718 5718 5718 5717 5714 5712 5713 5714 5713 5710 5706 5706 5712 5716 5717 5717
5736 5737 5737 5737 5735 5732 5729 5726 5723 5721 5720 5720 5718 5717 5714 5713 5713 5715 5715 5715 5716 5716 5716 5717 5716 5715 5714 5714 5713 5713 5713 5712 5709 5708 5708 5708 5707 5706 5702 5701 5705 5708 5711
5725 5725 5725 5726 5724 5722 5718 5715 5712 5710 5709 5708 5706 5704 5702 5702 5702 5702 5702 5702 5703 5704 5705 5707 5707 5708 5707 5707 5707 5708 5708 5707 5707 5706 5705 5703 5701 5700 5699 5698 5699 5700 5704
5715 5714 5714 5714 5713 5711 5708 5704 5701 5698 5697 5696 5693 5691 5690 5689 5688 5687 5687 5688 5688 5690 5692 5694 5696 5698 5699 5700 5701 5701 5701 5702 5702 5701 5701 5701 5701 5700 5698 5695 5695 5695 5698
5710 5708 5708 5705 5702 5700 5696 5693 5689 5685 5683 5681 5679 5678 5676 5675 5673 5674 5674 5674 5674 5675 5678 5680 5683 5686 5689 5691 5692 5693 5695 5696 5696 5697 5698 5698 5698 5698 5696 5694 5691 5690 5691
5703 5701 5699 5696 5692 5688 5685 5682 5677 5673 5670 5667 5665 5663 5661 5660 5659 5659 5659 5660 5660 5662 5664 5667 5669 5672 5675 5678 5681 5682 5686 5688 5690 5691 5692 5693 5695 5695 5694 5693 5691 5686 5684
5693 5691 5688 5685 5680 5677 5673 5668 5665 5661 5658 5655 5651 5650 5647 5645 5644 5643 5643 5643 5645 5647 5649 5652 5656 5658 5661 5665 5668 5671 5675 5679 5681 5683 5685 5687 5690 5690 5691 5690 5689 5687 5684
5682 5679 5676 5673 5669 5664 5659 5654 5650 5645 5641 5639 5636 5634 5632 5630 5628 5627 5627 5627 5629 5630 5633 5636 5640 5643 5647 5651 5654 5659 5663 5668 5672 5675 5678 5681 5684 5685 5686 5686 5686 5684 5683
5674 5670 5665 5660 5654 5648 5643 5638 5633 5629 5626 5623 5620 5617 5615 5613 5611 5610 5611 5612 5612 5614 5616 5619 5623 5627 5631 5635 5639 5644 5651 5655 5660 5665 5669 5673 5677 5679 5681 5681 5682 5681 5681
5663 5657 5651 5645 5639 5634 5629 5624 5619 5615 5611 5607 5603 5600 5597 5595 5593 5593 5594 5594 5595 5597 5599 5601 5604 5608 5614 5619 5624 5630 5636 5643 5649 5655 5659 5665 5669 5672 5674 5676 5677 5678 5679
5648 5641 5634 5629 5624 5619 5614 5609 5605 5600 5596 5590 5585 5581 5579 5577 5576 5576 5575 5576 5577 5578 5580 5583 5586 5590 5595 5601 5608 5615 5622 5629 5637 5644 5650 5656 5662 5666 5668 5671 5673 5674 5673
5635 5629 5621 5615 5610 5604 5599 5594 5589 5585 5580 5574 5569 5566 5564 5562 5560 5558 5558 5559 5559 5561 5563 5565 5568 5572 5577 5583 5590 5596 5605 5614 5623 5631 5640 5648 5655 5660 5664 5666 5668 5669 5668
5624 5618 5612 5605 5598 5592 5586 5581 5575 5571 5566 5561 5557 5555 5551 5549 5546 5545 5545 5544 5544 5544 5546 5548 5551 5555 5561 5567 5573 5579 5587 5597 5607 5617 5627 5636 5645 5652 5657 5661 5664 5666 5665
5613 5606 5600 5593 5586 5580 5575 5568 5565 5560 5556 5552 5549 5546 5543 5540 5538 5537 5536 5534 5533 5533 5533 5535 5537 5541 5545 5551 5556 5563 5571 5580 5591 5602 5613 5624 5634 5642 5647 5653 5657 5660 5663
5604 5597 5590 5583 5576 5571 5565 5561 5557 5552 5547 5544 5541 5539 5536 5534 5533 5531 5529 5528 5527 5526 5526 5527 5529 5531 5536 5540 5544 5549 5556 5565 5576 5588 5599 5610 5620 5630 5637 5643 5647 5651 5655
5594 5586 5579 5572 5566 5561 5556 5551 5547 5543 5540 5537 5535 5533 5531 5529 5528 5526 5525 5525 5524 5523 5523 5523 5524 5525 5528 5531 5535 5539 5544 5553 5563 5575 5587 5598 5609 5619 5627 5633 5638 5642 5646
5583 5575 5568 5561 5555 5550 5544 5539 5535 5532 5529 5528 5527 5526 5525 5523 5522 5522 5522 5522 5521 5521 5522 5522 5522 5522 5524 5526 5529 5531 5535 5542 5552 5563 5575 5587 5598 5607 5615 5624 5630 5634 5637
5572 5564 5556 5548 5542 5537 5531 5526 5523 5521 5520 5520 5519 5518 5517 5517 5517 5517 5518 5517 5517 5518 5518 5518 5520 5520 5522 5523 5525 5526 5528 5534 5543 5553 5565 5577 5587 5595 5605 5614 5622 5628 5630
5561 5553 5544 5537 5531 5526 5520 5516 5513 5513 5511 5510 5509 5509 5509 5510 5513 5511 5512 5512 5512 5512 5513 5513 5515 5517 5519 5520 5522 5524 5525 5529 5535 5546 5557 5568 5577 5585 5594 5604 5612 5616 5621
5550 5542 5534 5528 5523 5517 5510 5506 5505 5503 5501 5498 5498 5499 5500 5502 5504 5504 5505 5506 5507 5508 5509 5510 5511 5513 5514 5516 5518 5520 5522 5525 5530 5539 5549 5559 5567 5575 5585 5594 5601 5607 5613
5542 5535 5527 5520 5515 5510 5504 5500 5498 5495 5492 5490 5489 5490 5492 5494 5496 5497 5499 5501 5502 5504 5506 5507 5508 5509 5510 5511 5513 5515 5517 5520 5525 5532 5541 5550 5558 5569 5578 5585 5592 5599 5605
5536 5529 5520 5514 5509 5505 5500 5496 5492 5489 5486 5485 5484 5485 5485 5486 5488 5491 5494 5497 5500 5502 5504 5506 5506 5506 5507 5510 5511 5512 5513 5516 5521 5527 5535 5543 5553 5563 5571 5578 5585 5590 5595
5532 5524 5517 5511 5506 5501 5497 5494 5489 5485 5483 5481 5480 5480 5481 5481 5483 5486 5490 5495 5498 5501 5504 5505 5506 5507 5508 5509 5509 5509 5511 5513 5517 5524 5533 5541 5551 5560 5568 5574 5579 5583 5588